TimeICT,TemperatureF,Dew PointF,Humidity,Sea Level PressureIn,VisibilityMPH,Wind Direction,Wind SpeedMPH,Gust SpeedMPH,PrecipitationIn,Events,Conditions,WindDirDegrees,DateUTC
12:00 AM,82.4,69.8,66,29.92,5.0,East,4.6,-,N/A,,Scattered Clouds,100,2013-01-16 17:00:00
12:30 AM,80.6,66.2,61,29.92,6.2,East,6.9,-,N/A,,Scattered Clouds,100,2013-01-16 17:30:00
1:00 AM,80,73,73,29.91,4,Calm,Calm,,,,Mist,,2013-01-16 18:00:00
1:00 AM,80.6,66.2,61,29.92,6.2,East,5.8,-,N/A,,Scattered Clouds,80,2013-01-16 18:00:00
1:30 AM,80.6,66.2,61,29.92,6.2,ENE,6.9,-,N/A,,Scattered Clouds,70,2013-01-16 18:30:00
2:00 AM,78.8,64.4,61,29.92,6.2,East,4.6,-,N/A,,Scattered Clouds,80,2013-01-16 19:00:00
2:30 AM,77.0,66.2,69,29.92,6.2,NE,8.1,-,N/A,,Scattered Clouds,50,2013-01-16 19:30:00
3:00 AM,77.0,66.2,69,29.92,6.2,East,5.8,-,N/A,,Scattered Clouds,80,2013-01-16 20:00:00
3:30 AM,77.0,66.2,69,29.92,6.2,ENE,5.8,-,N/A,,Scattered Clouds,70,2013-01-16 20:30:00
4:00 AM,77.0,66.2,69,29.92,6.2,ENE,3.5,-,N/A,,Scattered Clouds,70,2013-01-16 21:00:00
4:30 AM,75.2,64.4,69,29.92,5.6,NE,3.5,-,N/A,,Scattered Clouds,50,2013-01-16 21:30:00
5:00 AM,75.2,64.4,69,29.92,5.0,East,3.5,-,N/A,,Scattered Clouds,80,2013-01-16 22:00:00
5:30 AM,77.0,64.4,65,29.95,5.0,East,4.6,-,N/A,,Scattered Clouds,90,2013-01-16 22:30:00
6:00 AM,77.0,66.2,69,29.95,5.0,East,5.8,-,N/A,,Scattered Clouds,90,2013-01-16 23:00:00
6:30 AM,77.0,66.2,69,29.95,5.0,East,5.8,-,N/A,,Scattered Clouds,100,2013-01-16 23:30:00
7:00 AM,74,65,68,29.95,4,ENE,3.5,,,,Mist,60,2013-01-17 00:00:00
7:00 AM,75.2,64.4,69,29.98,5.0,East,5.8,-,N/A,,Mostly Cloudy,90,2013-01-17 00:00:00
7:30 AM,77.0,64.4,65,29.98,5.6,ENE,8.1,-,N/A,,Mostly Cloudy,60,2013-01-17 00:30:00
8:00 AM,77.0,62.6,61,30.01,-9999.0,East,8.1,-,N/A,,Clear,80,2013-01-17 01:00:00
8:30 AM,78.8,60.8,54,30.01,5.6,East,12.7,-,N/A,,Unknown,80,2013-01-17 01:30:00
9:00 AM,80.6,62.6,54,30.04,5.6,East,12.7,-,N/A,,Unknown,80,2013-01-17 02:00:00
9:30 AM,80.6,60.8,51,30.04,5.6,East,15.0,26.5,N/A,,Unknown,90,2013-01-17 02:30:00
10:00 AM,82.4,59.0,45,30.04,5.6,East,16.1,-,N/A,,Unknown,90,2013-01-17 03:00:00
10:30 AM,82.4,57.2,42,30.04,-9999.0,East,17.3,-,N/A,,Clear,80,2013-01-17 03:30:00
11:00 AM,84.2,57.2,40,30.01,-9999.0,East,16.1,-,N/A,,Clear,80,2013-01-17 04:00:00
11:30 AM,86.0,57.2,37,30.01,-9999.0,East,18.4,29.9,N/A,,Clear,80,2013-01-17 04:30:00
12:00 PM,86.0,55.4,35,29.98,-9999.0,East,17.3,-,N/A,,Clear,90,2013-01-17 05:00:00
12:30 PM,87.8,55.4,33,29.98,-9999.0,ENE,16.1,27.6,N/A,,Clear,70,2013-01-17 05:30:00
1:00 PM,91,56,21,29.93,5,ENE,11.5,,,,Haze,70,2013-01-17 06:00:00
1:00 PM,89.6,55.4,31,29.95,-9999.0,East,16.1,-,N/A,,Clear,80,2013-01-17 06:00:00
1:30 PM,89.6,53.6,29,29.92,-9999.0,East,17.3,31.1,N/A,,Clear,80,2013-01-17 06:30:00
2:00 PM,89.6,53.6,29,29.92,-9999.0,East,17.3,-,N/A,,Clear,80,2013-01-17 07:00:00
2:30 PM,89.6,53.6,29,29.92,-9999.0,East,16.1,28.8,N/A,,Clear,80,2013-01-17 07:30:00
3:00 PM,89.6,53.6,29,29.89,-9999.0,East,13.8,-,N/A,,Clear,80,2013-01-17 08:00:00
3:30 PM,89.6,53.6,29,29.89,-9999.0,ENE,13.8,-,N/A,,Clear,70,2013-01-17 08:30:00
4:00 PM,89.6,55.4,31,29.89,-9999.0,ENE,11.5,25.3,N/A,,Clear,60,2013-01-17 09:00:00
4:30 PM,89.6,55.4,31,29.89,-9999.0,ENE,9.2,-,N/A,,Clear,60,2013-01-17 09:30:00
5:00 PM,87.8,55.4,33,29.89,5.6,NE,8.1,19.6,N/A,,Unknown,40,2013-01-17 10:00:00
5:30 PM,86.0,57.2,37,29.92,5.6,NE,6.9,-,N/A,,Unknown,50,2013-01-17 10:30:00
6:00 PM,86.0,57.2,37,29.92,5.0,ENE,5.8,-,N/A,,Unknown,60,2013-01-17 11:00:00
6:30 PM,84.2,59.0,42,29.92,5.0,ENE,4.6,-,N/A,,Unknown,60,2013-01-17 11:30:00
7:00 PM,86,60,31,29.93,5,NE,5.8,,,,Haze,40,2013-01-17 12:00:00
7:00 PM,82.4,59.0,45,29.95,5.0,NE,4.6,-,N/A,,Unknown,40,2013-01-17 12:00:00
7:30 PM,80.6,59.0,48,29.95,5.6,ENE,6.9,-,N/A,,Unknown,60,2013-01-17 12:30:00
8:00 PM,78.8,60.8,54,29.95,5.6,ENE,6.9,-,N/A,,Unknown,60,2013-01-17 13:00:00
8:30 PM,84.2,59.0,42,29.98,-9999.0,ENE,8.1,-,N/A,,Clear,60,2013-01-17 13:30:00
9:00 PM,80.6,59.0,48,29.98,-9999.0,NE,5.8,-,N/A,,Clear,40,2013-01-17 14:00:00
9:30 PM,80.6,59.0,48,29.98,-9999.0,NNE,6.9,-,N/A,,Clear,20,2013-01-17 14:30:00
10:00 PM,82.4,59.0,45,30.01,-9999.0,ENE,8.1,-,N/A,,Clear,60,2013-01-17 15:00:00
10:30 PM,80.6,59.0,48,30.01,-9999.0,ENE,9.2,-,N/A,,Clear,60,2013-01-17 15:30:00
11:00 PM,78.8,59.0,51,30.01,-9999.0,ENE,8.1,-,N/A,,Clear,70,2013-01-17 16:00:00
11:30 PM,78.8,57.2,47,30.01,-9999.0,ENE,9.2,-,N/A,,Clear,60,2013-01-17 16:30:00